Location: Demmingen
(48.6757°N, 10.4375°E)
Time: 05:05:09
(UTC+00:00)

CZ-2C R/B - Pass Details

Date: 10 August 2024
Orbit: 782 x 869 km, 98.3° (Epoch: 08 September)

Event Time Altitude Azimuth Distance (km) Brightness Sun altitude
Exits shadow 00:49:27 33° 146° (SE) 1,401 3.5 -23.1°
Maximum altitude 00:51:58 69° 72° (ENE) 909 2.9 -22.9°
Drops below altitude 10° 00:57:23 10° 350° (N) 2,459 5.9 -22.6°
Sets 00:59:44 0° 348° (NNW) 3,384 6.7 -22.4°
